timestamp,surface_pressure_avg,surface_temp_avg,battery_voltage,lat,long
2018-02-06 00:00:00+00:00,243.1764,0.5,12.41,47.84626,-54.09684
2018-02-06 00:10:00+00:00,252.3114,0.47,12.41,47.84626,-54.09684
2018-02-06 00:20:00+00:00,247.9848,0.4,12.41,47.84626,-54.09684
2018-02-06 00:30:00+00:00,253.1781,0.5,12.41,47.84626,-54.09684
2018-02-06 00:40:00+00:00,271.1164,0.5,12.41,47.84626,-54.09684
2018-02-06 00:50:00+00:00,278.6848,0.57,12.41,47.84626,-54.09684
2018-02-06 01:00:00+00:00,273.6198,0.6,12.41,47.84626,-54.09684
2018-02-06 01:10:00+00:00,272.4447,0.7,12.41,47.84626,-54.09684
2018-02-06 01:20:00+00:00,288.4514,0.7,12.41,47.84626,-54.09684
2018-02-06 01:30:00+00:00,304.1746,0.61,12.41,47.84626,-54.09684
2018-02-06 01:40:00+00:00,315.8463,0.7,12.41,47.84626,-54.09684
2018-02-06 01:50:00+00:00,326.2847,0.7,12.41,47.84626,-54.09684
2018-02-06 02:00:00+00:00,333.3214,0.7,12.41,47.84626,-54.09684
2018-02-06 02:10:00+00:00,332.1147,0.75,12.41,47.84626,-54.09684
2018-02-06 02:20:00+00:00,336.1247,0.8,12.41,47.84626,-54.09684
2018-02-06 02:30:00+00:00,345.698,0.8,12.41,47.84626,-54.09684
2018-02-06 02:40:00+00:00,349.2346,0.6,12.41,47.84626,-54.09684
2018-02-06 02:50:00+00:00,348.5312,0.72,12.41,47.84626,-54.09684
2018-02-06 03:00:00+00:00,350.7479,0.76,12.41,47.84626,-54.09684
2018-02-06 03:10:00+00:00,352.3963,0.79,12.41,47.84626,-54.09684
2018-02-06 03:20:00+00:00,341.5396,0.8,12.41,47.84626,-54.09684
2018-02-06 03:30:00+00:00,337.2546,0.8,12.41,47.84626,-54.09684
2018-02-06 03:40:00+00:00,338.3546,0.81,12.41,47.84626,-54.09684
2018-02-06 03:50:00+00:00,337.9064,0.81,12.41,47.84626,-54.09684
2018-02-06 04:00:00+00:00,334.0046,0.87,12.41,47.84626,-54.09684
2018-02-06 04:10:00+00:00,333.4697,0.9,12.41,47.84626,-54.09684
2018-02-06 04:20:00+00:00,331.4163,0.7,12.41,47.84626,-54.09684
2018-02-06 04:30:00+00:00,327.403,0.68,12.41,47.84626,-54.09684
2018-02-06 04:40:00+00:00,329.3763,0.7,12.41,47.84626,-54.09684
2018-02-06 04:50:00+00:00,331.6346,0.66,12.41,47.84626,-54.09684
2018-02-06 05:00:00+00:00,323.0496,0.7,12.41,47.84626,-54.09684
2018-02-06 05:10:00+00:00,316.3463,0.7,12.41,47.84626,-54.09684
2018-02-06 05:20:00+00:00,313.4846,0.7,12.41,47.84626,-54.09684
2018-02-06 05:30:00+00:00,305.548,0.7,12.41,47.84626,-54.09684
2018-02-06 05:40:00+00:00,297.0364,0.7,12.41,47.84626,-54.09684
2018-02-06 05:50:00+00:00,293.1547,0.7,12.41,47.84626,-54.09684
2018-02-06 06:00:00+00:00,281.1481,0.7,12.41,47.84626,-54.09684
2018-02-06 06:10:00+00:00,270.2747,0.69,12.41,47.84626,-54.09684
2018-02-06 06:20:00+00:00,262.7314,0.67,12.41,47.84626,-54.09684
2018-02-06 06:30:00+00:00,250.6114,0.6,12.41,47.84626,-54.09684
2018-02-06 06:40:00+00:00,235.5181,0.6,12.41,47.84626,-54.09684
2018-02-06 06:50:00+00:00,229.8948,0.6,12.41,47.84626,-54.09684
2018-02-06 07:00:00+00:00,224.1148,0.59,12.41,47.84626,-54.09684
2018-02-06 07:10:00+00:00,213.8214,0.52,12.41,47.84626,-54.09684
2018-02-06 07:20:00+00:00,207.1615,0.6,12.41,47.84626,-54.09684
2018-02-06 07:30:00+00:00,199.7231,0.65,12.41,47.84626,-54.09684
2018-02-06 07:40:00+00:00,192.1765,0.6,12.41,47.84626,-54.09684
2018-02-06 07:50:00+00:00,184.5632,0.56,12.41,47.84626,-54.09684
2018-02-06 08:00:00+00:00,183.1615,0.5,12.41,47.84626,-54.09684
2018-02-06 08:10:00+00:00,185.0248,0.5,12.41,47.84626,-54.09684
2018-02-06 08:20:00+00:00,183.6248,0.5,12.41,47.84626,-54.09684
2018-02-06 08:30:00+00:00,183.5531,0.6,12.41,47.84626,-54.09684
2018-02-06 08:40:00+00:00,186.5464,0.7,12.41,47.84626,-54.09684
2018-02-06 08:50:00+00:00,184.3715,0.9,12.41,47.84626,-54.09684
2018-02-06 09:00:00+00:00,179.1265,0.9,12.41,47.84626,-54.09684
2018-02-06 09:10:00+00:00,177.6715,0.9,12.41,47.84626,-54.09684
2018-02-06 09:20:00+00:00,178.2165,0.9,12.41,47.84626,-54.09684
2018-02-06 09:30:00+00:00,177.7131,0.9,12.41,47.84626,-54.09684
2018-02-06 09:40:00+00:00,179.2298,0.9,12.41,47.84626,-54.09684
2018-02-06 09:50:00+00:00,182.1048,0.95,12.41,47.84626,-54.09684
2018-02-06 10:00:00+00:00,180.3081,1.0,12.41,47.84626,-54.09684
2018-02-06 10:10:00+00:00,177.4248,1.0,12.41,47.84626,-54.09684
2018-02-06 10:20:00+00:00,184.0915,1.0,12.41,47.84626,-54.09684
2018-02-06 10:30:00+00:00,191.5665,1.0,12.41,47.84626,-54.09684
2018-02-06 10:40:00+00:00,184.9698,0.9,12.41,47.84626,-54.09684
2018-02-06 10:50:00+00:00,179.7598,1.02,12.41,47.84626,-54.09684
2018-02-06 11:00:00+00:00,187.1698,1.08,12.41,47.84626,-54.09684
2018-02-06 11:10:00+00:00,186.5414,1.08,12.41,47.84626,-54.09684
2018-02-06 11:20:00+00:00,181.2281,1.06,12.41,47.84626,-54.09684
2018-02-06 11:30:00+00:00,188.0348,1.01,12.41,47.84626,-54.09684
2018-02-06 11:40:00+00:00,197.1914,1.0,12.41,47.84626,-54.09684
2018-02-06 11:50:00+00:00,205.4198,1.0,12.41,47.84626,-54.09684
2018-02-06 12:00:00+00:00,211.8448,1.1,12.41,47.84626,-54.09684
2018-02-06 12:10:00+00:00,211.3864,1.1,12.41,47.84626,-54.09684
2018-02-06 12:20:00+00:00,216.8914,1.09,12.41,47.84626,-54.09684
2018-02-06 12:30:00+00:00,226.8431,1.1,12.41,47.84626,-54.09684
2018-02-06 12:40:00+00:00,228.308,1.1,12.41,47.84626,-54.09684
2018-02-06 12:50:00+00:00,230.6981,1.1,12.41,47.84626,-54.09684
2018-02-06 13:00:00+00:00,243.6564,1.1,12.41,47.84626,-54.09684
2018-02-06 13:10:00+00:00,252.1131,1.1,12.41,47.84626,-54.09684
2018-02-06 13:20:00+00:00,254.1081,1.11,12.41,47.84626,-54.09684
2018-02-06 13:30:00+00:00,260.4331,1.11,12.41,47.84626,-54.09684
2018-02-06 13:40:00+00:00,270.3214,1.11,12.41,47.84626,-54.09684
2018-02-06 13:50:00+00:00,275.9414,1.16,12.41,47.84626,-54.09684
2018-02-06 14:00:00+00:00,281.0514,1.19,12.41,47.84626,-54.09684
2018-02-06 14:10:00+00:00,288.2414,1.19,12.41,47.84626,-54.09684
2018-02-06 14:20:00+00:00,298.5914,1.2,12.41,47.84626,-54.09684
2018-02-06 14:30:00+00:00,310.1931,1.22,12.41,47.84626,-54.09684
2018-02-06 14:40:00+00:00,318.4747,1.3,12.41,47.84626,-54.09684
2018-02-06 14:50:00+00:00,323.2596,1.2,12.41,47.84626,-54.09684
2018-02-06 15:00:00+00:00,323.573,1.2,12.41,47.84626,-54.09684
2018-02-06 15:10:00+00:00,325.6597,1.2,12.33,47.84626,-54.09684
2018-02-06 15:20:00+00:00,328.468,1.2,12.41,47.84626,-54.09684
2018-02-06 15:30:00+00:00,327.1246,1.12,12.41,47.84626,-54.09684
2018-02-06 15:40:00+00:00,328.2845,1.11,12.41,47.84626,-54.09684
2018-02-06 15:50:00+00:00,329.9646,1.15,12.41,47.84626,-54.09684
2018-02-06 16:00:00+00:00,330.7097,1.23,12.33,47.84626,-54.09684
2018-02-06 16:10:00+00:00,330.1897,1.25,12.33,47.84626,-54.09684
2018-02-06 16:20:00+00:00,340.2897,1.25,12.41,47.84626,-54.09684
2018-02-06 16:30:00+00:00,348.988,1.2,12.41,47.84626,-54.09684
2018-02-06 16:40:00+00:00,342.0846,1.15,12.41,47.84626,-54.09684
2018-02-06 16:50:00+00:00,344.3263,1.16,12.41,47.84626,-54.09684
2018-02-06 17:00:00+00:00,346.6396,1.19,12.33,47.84626,-54.09684
2018-02-06 17:10:00+00:00,338.4313,1.13,12.33,47.84626,-54.09684
2018-02-06 17:20:00+00:00,329.6397,1.19,12.41,47.84626,-54.09684
2018-02-06 17:30:00+00:00,335.5262,1.2,12.41,47.84626,-54.09684
2018-02-06 17:40:00+00:00,335.618,1.2,12.41,47.84626,-54.09684
2018-02-06 17:50:00+00:00,326.0563,1.19,12.41,47.84626,-54.09684
2018-02-06 18:00:00+00:00,327.6997,1.2,12.33,47.84626,-54.09684
2018-02-06 18:10:00+00:00,336.0345,1.32,12.41,47.84626,-54.09684
2018-02-06 18:20:00+00:00,329.6613,1.4,12.41,47.84626,-54.09684
2018-02-06 18:30:00+00:00,319.7796,1.26,12.41,47.84626,-54.09684
2018-02-06 18:40:00+00:00,319.4779,1.29,12.41,47.84626,-54.09684
2018-02-06 18:50:00+00:00,321.153,1.3,12.41,47.84626,-54.09684
2018-02-06 19:00:00+00:00,305.743,1.2,12.33,47.84626,-54.09684
2018-02-06 19:10:00+00:00,292.8414,1.25,12.33,47.84626,-54.09684
2018-02-06 19:20:00+00:00,292.5714,1.3,12.41,47.84626,-54.09684
2018-02-06 19:30:00+00:00,287.5729,1.3,12.41,47.84626,-54.09684
2018-02-06 19:40:00+00:00,274.8065,1.27,12.41,47.84626,-54.09684
2018-02-06 19:50:00+00:00,270.4231,1.2,12.41,47.84626,-54.09684
2018-02-06 20:00:00+00:00,271.0731,1.2,12.41,47.84626,-54.09684
2018-02-06 20:10:00+00:00,256.2864,1.2,12.33,47.84626,-54.09684
2018-02-06 20:20:00+00:00,243.0048,1.2,12.41,47.84626,-54.09684
2018-02-06 20:30:00+00:00,242.6065,1.2,12.41,47.84626,-54.09684
2018-02-06 20:40:00+00:00,240.8131,1.2,12.41,47.84626,-54.09684
2018-02-06 20:50:00+00:00,236.3598,1.2,12.41,47.84626,-54.09684
2018-02-06 21:00:00+00:00,232.0998,1.26,12.33,47.84626,-54.09684
2018-02-06 21:10:00+00:00,231.0515,1.29,12.33,47.84626,-54.09684
2018-02-06 21:20:00+00:00,227.7314,1.28,12.41,47.84626,-54.09684
2018-02-06 21:30:00+00:00,222.7664,1.2,12.41,47.84626,-54.09684
2018-02-06 21:40:00+00:00,225.4447,1.2,12.41,47.84626,-54.09684
2018-02-06 21:50:00+00:00,226.5164,1.2,12.41,47.84626,-54.09684
2018-02-06 22:00:00+00:00,227.7231,1.28,12.33,47.84626,-54.09684
2018-02-06 22:10:00+00:00,232.6814,1.23,12.33,47.84626,-54.09684
2018-02-06 22:20:00+00:00,233.958,1.2,12.41,47.84626,-54.09684
2018-02-06 22:30:00+00:00,234.6631,1.2,12.41,47.84626,-54.09684
2018-02-06 22:40:00+00:00,238.1881,1.23,12.41,47.84626,-54.09684
2018-02-06 22:50:00+00:00,240.9564,1.25,12.41,47.84626,-54.09684
2018-02-06 23:00:00+00:00,244.2431,1.25,12.33,47.84626,-54.09684
2018-02-06 23:10:00+00:00,245.4681,1.28,12.33,47.84626,-54.09684
2018-02-06 23:20:00+00:00,250.8231,1.29,12.41,47.84626,-54.09684
2018-02-06 23:30:00+00:00,258.4581,1.26,12.41,47.84626,-54.09684
2018-02-06 23:40:00+00:00,255.7697,1.26,12.41,47.84626,-54.09684
2018-02-06 23:50:00+00:00,254.1831,1.23,12.41,47.84626,-54.09684
